Home > Weather > Västerås > Past weeks

Flag for Sweden Past Weather in Västerås, Sweden — Yesterday and Last 2 Weeks

Now
48 °F

Scattered clouds.


Feels Like: 44 °F
Forecast: 46 / 55 °F
Wind: 10 mph from Northwest

Location: Vasteras / Hasslo

Current Time: May 26, 2016 at 6:55:39 AM

Latest Report: May 26, 2016 at 6:20 AM


Visibility: N/A

Pressure: 29.95 "Hg

Humidity: 82%

Dew Point: 43 °F

Location of VästeråsLocation

Past Weather in Västerås — Graph

°F

Västerås Temperature Yesterday

Maximum temperature yesterday: 54 °F (at 7:20 AM)
Minimum temperature yesterday: 46 °F (at 11:50 PM)
Average temperature yesterday: 51 °F

High & Low Weather Summary for the Past Weeks

 TemperatureHumidityPressure
High77 °F (May 24, 1:20 PM)100% (May 16, 11:50 PM)30.18 "Hg (May 16, 11:50 PM)
Low32 °F (May 12, 4:20 AM)20% (May 12, 3:50 PM)29.56 "Hg (May 14, 3:50 AM)
Average52 °F71%29.84 "Hg
* Reported May 11 5:20 AM — May 26 5:50 AM, Västerås, Weather by CustomWeather, © 2016

Note: Actual official high and low records may vary slightly from our data, if they occured in-between our weather recording intervals... More about our weather records

Advertising

Västerås Weather History for the Previous 24 Hours

Scroll right to see more
 ConditionsComfort  
Time TempWeatherWind HumidityBarometerVisibility
5:50 AM
Thu, May 26
46 °FDrizzle. Cloudy.8 mph87%29.95 "HgN/A
5:20 AM46 °FDrizzle. Cloudy.8 mph87%29.95 "HgN/A
4:50 AM46 °FLight rain. Overcast.9 mph87%29.95 "HgN/A
4:20 AM46 °FPassing clouds.8 mph82%29.98 "HgN/A
3:50 AM46 °FCool.9 mph82%29.98 "HgN/A
3:20 AM46 °FCool.9 mph82%29.98 "HgN/A
2:50 AM46 °FCool.10 mph82%30.01 "HgN/A
2:20 AM46 °FPassing clouds.12 mph82%30.01 "HgN/A
1:50 AM46 °FPassing clouds.12 mph82%30.01 "HgN/A
1:20 AM46 °FCool.10 mph82%30.01 "HgN/A
12:50 AM46 °FCool.9 mph82%30.04 "HgN/A
12:20 AM46 °FCool.9 mph82%30.04 "HgN/A
11:50 PM
Wed, May 25
46 °FCool.8 mph82%30.04 "HgN/A
11:20 PM48 °FCool.10 mph76%30.04 "HgN/A
10:50 PM48 °FPassing clouds.8 mph82%30.04 "HgN/A
10:20 PM50 °FPartly sunny.7 mph76%30.04 "HgN/A
9:50 PM50 °FBroken clouds.12 mph76%30.07 "HgN/A
9:20 PM50 °FBroken clouds.8 mph76%30.07 "HgN/A
8:50 PM52 °FScattered clouds.8 mph72%30.07 "HgN/A
8:20 PM52 °FBroken clouds.12 mph72%30.07 "HgN/A
7:50 PM54 °FPartly sunny.12 mph67%30.07 "HgN/A
7:20 PM52 °FScattered clouds.13 mph72%30.07 "HgN/A
6:50 PM54 °FScattered clouds.13 mph72%30.07 "HgN/A
6:20 PM54 °FScattered clouds.13 mph67%30.07 "HgN/A
5:50 PM52 °FPartly sunny.16 mph72%30.07 "HgN/A
5:20 PM52 °FPartly sunny.14 mph72%30.07 "HgN/A
4:50 PM52 °FPartly sunny.15 mph77%30.07 "HgN/A
4:20 PM52 °FPartly sunny.16 mph77%30.09 "HgN/A
3:50 PM50 °FBroken clouds.16 mph82%30.09 "HgN/A
3:20 PM50 °FPartly sunny.15 mph82%30.09 "HgN/A
2:50 PM50 °FBroken clouds.15 mph82%30.09 "HgN/A
2:20 PM50 °FMore clouds than sun.14 mph82%30.09 "HgN/A
1:50 PM50 °FDrizzle. Partly sunny.12 mph88%30.09 "HgN/A
1:20 PM50 °FLight rain. Partly sunny.14 mph88%30.09 "HgN/A
12:50 PM50 °FPartly sunny.14 mph88%30.09 "HgN/A
12:20 PM50 °FDrizzle. Broken clouds.14 mph88%30.07 "HgN/A
11:50 AM50 °FLight rain. Partly sunny.14 mph88%30.09 "HgN/A
11:20 AM50 °FLight rain. More clouds than sun.15 mph88%30.09 "HgN/A
10:50 AM50 °FLight rain. Partly sunny.17 mph82%30.07 "HgN/A
10:20 AM52 °FDrizzle. Partly sunny.18 mph77%30.07 "Hg6 mi
9:50 AM52 °FPartly sunny.20 mph72%30.07 "HgN/A
9:20 AM52 °FPartly sunny.17 mph77%30.07 "HgN/A
8:50 AM54 °FPartly sunny.18 mph67%30.07 "HgN/A
8:20 AM54 °FPartly sunny.17 mph72%30.07 "HgN/A
7:50 AM54 °FBroken clouds.16 mph72%30.07 "HgN/A
7:20 AM54 °FBroken clouds.17 mph72%30.04 "HgN/A
6:50 AM52 °FScattered clouds.15 mph77%30.04 "HgN/A
6:20 AM50 °FScattered clouds.13 mph82%30.04 "HgN/A
Weather by CustomWeather, © 2016

See weather overviewHow to use our weather pages